Regional Weather Roundup
Issued by NWS

Home | Current Version | Previous Version | Text Only | Print | Product List | Glossary On
Versions: 1 2 3 4 5 6 7 8 9 10 11 12 13 14 15 16 17 18 19 20 21 22 23 24 25 26 27 28 29 30 31 32 33 34 35 36 37 38 39 40 41 42 43 44 45 46 47 48 49 50
000
ASUS43 KMKX 270048
RWRWI

WISCONSIN REGIONAL WEATHER ROUNDUP
NATIONAL WEATHER SERVICE MILWAUKEE/SULLIVAN WI
800 PM CDT TUE MAY 26 2015

NOTE: "FAIR" INDICATES FEW OR NO CLOUDS BELOW 12,000 FEET WITH NO
SIGNIFICANT WEATHER AND/OR OBSTRUCTIONS TO VISIBILITY.

WIZ001-002-006>008-014>016-023>028-270200-
NORTHWEST WISCONSIN

CITY           SKY/WX    TMP DP  RH WIND       PRES   REMARKS
SUPERIOR ARPT  CLOUDY    54  51  90 E5        29.78F
ASHLAND        CLOUDY    54  53  97 N7        29.78S
HAYWARD        LGT RAIN  55  53  93 N6        29.75F
SIREN          LGT RAIN  57  56  96 CALM      29.76F
CUMBERLAND     RAIN      54  54 100 N9        29.74S
RICE LAKE      LGT RAIN  57  55  92 N5        29.75S
CHETEK         RAIN      57  57  98 NW6       29.73S
LADYSMITH      RAIN      58  56  96 N12       29.74R
EAU CLAIRE     RAIN      61  59  93 N10       29.70R FOG
MENOMONIE      RAIN      60  60  97 NW12      29.72S
NEW RICHMOND   LGT RAIN  57  57 100 N8        29.75F
OSCEOLA        RAIN      57  57 100 N3        29.78F
$$

WIZ003>005-009-010-017-018-270200-
NORTH CENTRAL WISCONSIN

CITY           SKY/WX    TMP DP  RH WIND       PRES   REMARKS
MANITOWISH WTR LGT RAIN  56  56 100 N5        29.72F
ARBOR VITAE    DRIZZLE   59  58  94 N8        29.71F
WOODRUFF       DRIZZLE   59  58  94 N8        29.71F
RHINELANDER    LGT RAIN  62  60  93 NE7       29.69S
EAGLE RIVER    CLOUDY    62  61  96 N6        29.70F
LAND O LAKES   CLOUDY    60  59  97 N7        29.72S
PHILLIPS       CLOUDY    60  59  98 N8        29.70S
TOMAHAWK       LGT RAIN  64  60  89 NE6       29.68S
MEDFORD        HVY RAIN  62  60  94 NE7       29.67F
MERRILL        RAIN      63  63  99 CALM      29.67S
$$

WIZ029-030-035-036-043>047-270200-
CENTRAL WISCONSIN

CITY           SKY/WX    TMP DP  RH WIND       PRES   REMARKS
WAUSAU         RAIN      63  62  97 N5        29.63S FOG
MOSINEE        LGT RAIN  63  63 100 W5        29.65S
MARSHFIELD     RAIN      64  60  87 N7        29.63F FOG
STEVENS POINT  LGT RAIN  63  62  98 W3        29.64S
WAUPACA        MOCLDY    70  68  94 CALM      29.62S
WAUTOMA        MOCLDY    71  66  84 SW7       29.62S
WISC RAPIDS    CLOUDY    66  62  87 NE6       29.63F
CAMP DOUGLAS   MOCLDY    66  66 100 SW14        N/A
$$

WIZ011>013-019>022-031-037>040-048>050-270200-
NORTHEAST WISCONSIN

CITY           SKY/WX    TMP DP  RH WIND       PRES   REMARKS
ANTIGO         CLOUDY    62  60  94 E13       29.65F
SHAWANO        CLOUDY    68  66  95 SE9       29.62F FOG
OCONTO         CLOUDY    63  63 100 SE7       29.64F
STURGEON BAY   CLOUDY    61  55  82 SE12      29.70F VSB 1/2
GREEN BAY      PTCLDY    71  65  81 SE13      29.63F
MANITOWOC      FOG       52  51  97 SE7       29.68F VSB<1/4
APPLETON       MOCLDY    72  61  68 S13G18    29.63F
CLINTONVILLE   CLOUDY    70  66  88 SW6       29.62S
OSHKOSH        CLOUDY    69  65  86 S9        29.63S
$$

WIZ032>034-041-042-053>061-270200-
SOUTHWEST WISCONSIN

CITY           SKY/WX    TMP DP  RH WIND       PRES   REMARKS
LA CROSSE      LGT RAIN  63  60  90 NW16G24   29.68R
SPARTA         CLOUDY    61  60  94 W16G24    29.64R
VIROQUA        CLOUDY    61  61 100 W18       29.71R
BOSCOBEL       CLOUDY    67  59  75 SW13G21   29.73R
PRAIRIE DU CHI CLOUDY    66  58  75 W10       29.74R
PLATTEVILLE    MOCLDY    67  61  81 W15G23    29.76R
$$

WIZ056-057-062-063-064-067-068-270200-
SOUTH CENTRAL WISCONSIN

CITY           SKY/WX    TMP DP  RH WIND       PRES   REMARKS
REEDSBURG      LGT RAIN  65  62  91 SW17G26   29.66R
BARABOO/DELLS  CLOUDY    66  60  82 SW12G25   29.65R
LONE ROCK      CLOUDY    66  59  78 W16G25    29.71R
MINERAL POINT  MOCLDY    66  61  82 W17G24    29.74R
MADISON        MOCLDY    67  58  72 SW16G28   29.69R
MIDDLETON      CLOUDY    67  58  73 W17G25    29.70R
WATERTOWN      CLOUDY   N/A N/A N/A SW20G33   29.70R
MONROE         CLOUDY    68  59  73 W26G36    29.75R
JANESVILLE     MOCLDY    72  57  60 SW17G29   29.73R
$$

WIZ051-052-058>065-066-070>072-270200-
SOUTHEAST WISCONSIN

CITY           SKY/WX    TMP DP  RH WIND       PRES   REMARKS
MILWAUKEE      MOCLDY    72  62  71 SW17G25   29.72R
WAUKESHA       CLOUDY    70  57  64 SW15G23   29.72R
MILWAUKEE/TIMM MOCLDY    72  57  60 S17G26    29.70R
RACINE         CLOUDY    70  62  76 SW14G20   29.74R
BURLINGTON     CLEAR     69  57  66 SW22G28   29.74R
KENOSHA        PTCLDY    70  63  78 SW14G23   29.74S
FOND DU LAC    MOCLDY    69  63  81 S13       29.65R
SHEBOYGAN      PTCLDY    63  59  87 SE7       29.67R
WEST BEND      MOCLDY    70  59  68 S13G23    29.68R
JUNEAU         CLOUDY    67  62  84 S23G30    29.69R
$$

LSZ147-162-270200-
LAKE SUPERIOR

STATION/POSITION TIME  TEMP    WIND        PRES    WAVE
                       AIR SEA DIR/SP/G            HT/PER
                 (UTC) (F)     (DEG/KT/KT) (MB)    (FT/S)
W MID LAKE BUOY  2350   41 37  340/  8/ 10 1085.0    0
DEVILS ISLAND    0000   45     350/ 10/ 11 1089.0
PORT WING        2340   45      30/  4/  5 1088.0
$$

LMZ867-665-643>646-270200-
LAKE MICHIGAN

STATION/POSITION TIME  TEMP    WIND        PRES    WAVE
                       AIR SEA DIR/SP/G            HT/PER
                 (UTC) (F)     (DEG/KT/KT) (MB)    (FT/S)
CHAMBERS ISLAND  2300   58      60/  5/  6 1058.0F
N MID LAKE BUOY  2350   43 37   70/ 10/ 12 1068.0F   2/ 5
NORTHPORT PIER   2300   53      60/  1/  2 1064.0F
SISTER BAY       2318   64     160/ 10/ 13   N/A
ALGOMA LAKESHORE 2338          170/  3/  5   N/A
KEWAUNEE LAKESHO 0000   49     160/ 10/ 11 1048.0F
SHEBOYGAN LAKESH 0000   47     170/ 14/ 15 1053.0F
PORT WASHINGTON  0000          210/  9/ 19 1058.0S
ATWATER BUOY     0000   62 47  200/ 14/ 17 1074.0R
MILWAUKEE LAKESH 0000   72     220/ 21/ 27   N/A
S MID LAKE BUOY  2350   50 38  190/ 14/ 16 1081.0R   2/ 4
$$

TC  - TEMPERATURE IN CELSIUS
VSB - VISIBILITY IN STATUTE MILES
WCI - WIND CHILL INDEX
HX  - HEAT INDEX




USA.gov is the U.S. government's official web portal to all federal, state and local government web resources and services.